SL-14 DEB, 45299

Orbit data source: Space-Track

SL-14 DEB, 45299 is space debris in LEO originally from a launch on Thu, 15 Aug 1991 UTC launched from the Plesetsk Missile And Space Complex (PKMTR). Debris objects in space refer to the collection of defunct objects orbiting the Earth. Examples of debris include non-operational satellites, rocket bodies, and fragments generated from explosions, collisions, or faulty payload assembly.

Loading next visibility...
Identifier
45299, 1991-056AM
Orbit
LEO
Country
Flag of CISCIS
Related business
Manufacturer
Unknown
Mission
Spacecraft
Bus & Motor
Unknown
Mass
Unknown
Launch date (UTC)
1991-08-15 (34 years ago)
Launch vehicle
Unknown
Launch site
Plesetsk Missile And Space Complex (PKMTR)
Object type
Payload
Rocket body
Debris
Shape & HBR
Unknown shape, 0.4 m
Radar Cross Section
Medium (>0.1 m² and <1 m²)

Expand to show TLE details & history
Last TLE update: 14 hours ago

TLE from 14 hours ago
0 SL-14 DEB
1 45299U 91056AM  26035.36346982  .00002087  00000-0  54888-2 0  9999
2 45299  82.6318 269.2138 0121842 347.4819  12.3281 13.13272346285356
Epoch: 2026-02-04T08:43Z
TLE epoch observation values (Epoch: 2026-02-04T08:43:23.792Z)
Latitude
-0.00007°
Longitude
3.83354°
Altitude
1,123.038 km
Speed
7.334 km/s
True Right ascension
17h 56m 51s
True Declination
0° 00' 00"
Sunlit
Object was in daylight at epoch
Visualization orbit readout
Latitude
Unknown
Longitude
Unknown
Altitude
Unknown
Speed
Unknown
Apparent Right ascension
Unknown
Apparent Declination
Unknown
Sunlit
N/A
Visualization observer readout
Local Sidereal Time
00:45:04
Azimuth
Unknown
Elevation
Unknown
Doppler factor
Unknown
Orbital elements
Apogee altitude
1,300.201 km
Perigee altitude
1,115.345 km
Semi-major axis
7,585.91 km
Eccentricity
0.01218
Inclination
82.6318°
RAAN
269.2138°
Arg. of periapsis
347.4819°
True anomaly
12.6307°
Mean anomaly
12.3281°
Eccentric anomaly
12.47895°
Mean motion
3.28497 °/min
Orbital period
109.59 mins
BSTAR
0.0054888
Loading maneuver chart data...
Computing Atmospheric mass density...
Loading historical data...
Loading historical data...
Loading historical data...
Loading historical data...
Loading historical data...
Loading historical data...
Loading historical data...

Documentation

Showing up to 5 results
|